Flag for Micronesia Weather past 2 weeks in Palikir, Pohnpei, Micronesia

Now
84 °F

Cloudy.


Feels Like: 91 °F
Forecast: 76 / 85 °F
Wind: No wind

Location: Pohnpei

Current Time: May 29, 2015 at 12:34:56 PM

Latest Report: May 29, 2015 at 11:51 AM


Visibility: 15 mi

Pressure: 29.93 "Hg

Humidity: 73%

Dew point: 74 °F

Location of PalikirLocation

Historic Weather in Palikir — Graph

°F

Palikir temperature yesterday

Maximum temperature yesterday: 90 °F (at 10:52 AM)
Minimum temperature yesterday: 76 °F (at 2:53 AM)
Average temperature yesterday: 81 °F

Past Weeks' High & Low Weather Summary

 TemperatureHumidityPressure
High90 °F (May 28, 10:52 AM)99% (May 20, 4:52 AM)29.99 "Hg (May 20, 4:52 AM)
Low75 °F (May 27, 5:52 AM)66% (May 28, 10:52 AM)29.78 "Hg (May 14, 2:52 PM)
Average81 °F86%29.88 "Hg
* Reported May 14 11:51 AM — May 29 11:51 AM, Palikir, Weather by CustomWeather, © 2015

Note: Actual official high and low records may vary slightly from our data, if they occured in-between our weather recording intervals... More about our weather records

Advertising

Palikir weather history for previous 24 hours

 ConditionsComfort  
Time TempWeatherWind HumidityBarometerVisibility
11:51 AM
Fri, May 29
84 °FCloudy.No wind73%29.93 "Hg15 mi
10:52 AM82 °FCloudy.No wind77%29.96 "Hg15 mi
9:54 AM79 °FMostly cloudy.3 mph92%29.97 "Hg15 mi
8:51 AM78 °FSprinkles. Mostly cloudy.3 mph94%29.99 "Hg12 mi
7:53 AM77 °FMostly cloudy.3 mph95%29.98 "Hg15 mi
5:52 AM75 °FOvercast.3 mph95%29.98 "Hg15 mi
4:52 AM76 °FOvercast.3 mph99%29.93 "Hg15 mi
3:52 AM76 °FPartly cloudy.3 mph96%29.91 "Hg15 mi
2:51 AM76 °FPartly cloudy.3 mph96%29.91 "Hg15 mi
1:52 AM76 °FOvercast.3 mph96%29.91 "Hg15 mi
12:52 AM77 °FPartly cloudy.3 mph95%29.92 "Hg15 mi
11:50 PM
Thu, May 28
76 °FPartly cloudy.3 mph94%29.95 "Hg15 mi
10:50 PM77 °FPartly cloudy.3 mph94%29.95 "Hg15 mi
9:50 PM77 °FPartly cloudy.3 mph94%29.95 "Hg15 mi
8:50 PM78 °FPartly cloudy.3 mph92%29.93 "Hg15 mi
7:50 PM80 °FPartly cloudy.3 mph94%29.91 "Hg15 mi
6:50 PM81 °FPartly cloudy.3 mph94%29.89 "Hg15 mi
5:50 PM83 °FBroken clouds.3 mph79%29.86 "Hg15 mi
4:55 PM85 °FBroken clouds.3 mph79%29.83 "Hg15 mi
3:52 PM87 °FMostly cloudy.5 mph75%29.83 "Hg15 mi
2:50 PM85 °FMostly cloudy.8 mph79%29.85 "Hg15 mi
1:56 PM88 °FCloudy.12 mph73%29.86 "Hg15 mi
12:52 PM86 °FCloudy.8 mph78%29.88 "Hg15 mi
Weather by CustomWeather, © 2015

See weather overviewHow to use our weather pages